KF5WOE-13 Weather Reports


Display with metric or nautical units.
time (UTC)temp
F
wind
direction
speed
MPH
gust
MPH
rain 1hr
in
rain 24hr
in
rain mn
in
humidity
%
barometer
mb
20260510153324 140 183 8.0 10.0 0.00 0.00 0.00 1013.3
20260510152821 140 122 8.0 9.0 0.00 0.00 0.00 1013.3
20260510152318 140 113 8.0 10.0 0.00 0.00 0.00 1013.6
20260510151814 140 118 6.0 10.0 0.00 0.00 0.00 1013.8
20260510151312 140 115 11.0 14.0 0.00 0.00 0.00 1013.5
20260510150808 140 134 10.0 13.0 0.00 0.00 0.00 1013.6
20260510150303 140 132 12.0 15.0 0.00 0.00 0.00 1013.6
20260510145800 140 109 14.0 17.0 0.00 0.00 0.00 1013.7
20260510145257 140 143 12.0 14.0 0.00 0.00 0.00 1014.0
20260510144753 140 112 13.0 15.0 0.00 0.00 0.00 1013.8
20260510144250 140 126 13.0 16.0 0.00 0.00 0.00 1013.8
20260510143749 140 124 10.0 11.0 0.00 0.00 0.00 1014.0
20260510143246 140 109 11.0 13.0 0.00 0.00 0.00 1013.8
20260510142743 140 108 11.0 15.0 0.00 0.00 0.00 1014.1
20260510142239 140 121 6.0 11.0 0.00 0.00 0.00 1014.1
20260510141737 140 100 10.0 11.0 0.00 0.00 0.00 1014.1
20260510141235 140 93 11.0 13.0 0.00 0.00 0.00 1014.1
20260510140731 140 107 14.0 16.0 0.00 0.00 0.00 1014.2
20260510140226 140 110 11.0 11.0 0.00 0.00 0.00 1014.4
20260510135720 140 115 10.0 13.0 0.00 0.00 0.00 1014.6
20260510135216 140 116 11.0 14.0 0.00 0.00 0.00 1014.4
20260510134714 140 117 12.0 14.0 0.00 0.00 0.00 1014.5
20260510134211 140 117 7.0 7.0 0.00 0.00 0.00 1014.4
20260510133707 140 102 7.0 9.0 0.00 0.00 0.00 1014.2
20260510133202 140 108 11.0 13.0 0.00 0.00 0.00 1014.2
20260510132659 140 89 7.0 9.0 0.00 0.00 0.00 1014.0
20260510132156 140 105 9.0 11.0 0.00 0.00 0.00 1013.9
20260510131654 140 91 5.0 7.0 0.00 0.00 0.00 1014.1
20260510131151 140 111 8.0 9.0 0.00 0.00 0.00 1013.9
20260510130647 140 87 7.0 9.0 0.00 0.00 0.00 1014.0
20260510130144 140 86 13.0 15.0 0.00 0.00 0.00 1014.0
20260510125641 140 110 6.0 10.0 0.00 0.00 0.00 1013.8
20260510125137 140 55 8.0 13.0 0.00 0.00 0.00 1013.7
20260510124634 140 88 14.0 17.0 0.00 0.00 0.00 1013.6
20260510124131 140 110 5.0 8.0 0.00 0.00 0.00 1013.7
20260510123626 140 99 11.0 14.0 0.00 0.00 0.00 1013.6
20260510123123 140 97 13.0 16.0 0.00 0.00 0.00 1013.5
20260510122619 140 75 14.0 16.0 0.00 0.00 0.00 1013.4
20260510122114 140 69 7.0 8.0 0.00 0.00 0.00 1013.0
20260510121612 140 101 10.0 10.0 0.00 0.00 0.00 1013.0
20260510121109 140 73 11.0 14.0 0.00 0.00 0.00 1013.0
20260510120607 140 74 8.0 11.0 0.00 0.00 0.00 1012.9
20260510115559 140 77 4.0 7.0 0.00 0.00 0.00 1012.6
20260510115056 140 88 6.0 9.0 0.00 0.00 0.00 1012.8
20260510114552 140 80 12.0 16.0 0.00 0.00 0.00 1012.5
20260510114048 140 75 10.0 13.0 0.00 0.00 0.00 1012.4
20260510113543 140 72 12.0 15.0 0.00 0.00 0.00 1012.6
20260510113041 140 48 12.0 15.0 0.00 0.00 0.00 1012.2
20260510112537 140 63 11.0 15.0 0.00 0.00 0.00 1012.5
20260510112034 140 71 8.0 10.0 0.00 0.00 0.00 1012.4
20260510111531 140 55 12.0 15.0 0.00 0.00 0.00 1012.4
20260510111027 140 71 6.0 8.0 0.00 0.00 0.00 1012.4
20260510110523 140 77 8.0 17.0 0.00 0.00 0.00 1012.4
20260510110020 140 67 8.0 11.0 0.00 0.00 0.00 1012.2
20260510105514 140 67 11.0 14.0 0.00 0.00 0.00 1012.5
20260510105010 140 57 11.0 13.0 0.00 0.00 0.00 1012.1
20260510104507 140 74 4.0 6.0 0.00 0.00 0.00 1012.1
20260510104003 140 34 9.0 11.0 0.00 0.00 0.00 1011.9
20260510103500 140 76 7.0 8.0 0.00 0.00 0.00 1012.1
20260510102956 140 60 4.0 6.0 0.00 0.00 0.00 1012.0
20260510102452 140 69 5.0 8.0 0.00 0.00 0.00 1012.0
20260510101948 140 32 6.0 9.0 0.00 0.00 0.00 1011.8
20260510101446 140 47 7.0 11.0 0.00 0.00 0.00 1011.6
20260510100945 140 68 7.0 11.0 0.00 0.00 0.00 1011.7
20260510100440 140 87 6.0 7.0 0.00 0.00 0.00 1011.5
20260510095937 140 54 2.0 6.0 0.00 0.00 0.00 1011.4
20260510095432 140 73 2.0 5.0 0.00 0.00 0.00 1011.3
20260510094932 140 78 2.0 3.0 0.00 0.00 0.00 1011.0
20260510094426 140 95 1.0 1.0 0.00 0.00 0.00 1010.8
20260510093923 140 46 2.0 2.0 0.00 0.00 0.00 1010.7
20260510093418 140 74 3.0 3.0 0.00 0.00 0.00 1010.7
20260510092915 140 85 2.0 2.0 0.00 0.00 0.00 1010.8
20260510092413 140 50 0.0 0.0 0.00 0.00 0.00 1010.8
20260510091913 140 99 3.0 3.0 0.00 0.00 0.00 1010.7
20260510091410 140 62 3.0 5.0 0.00 0.00 0.00 1010.8
20260510090906 140 11 3.0 5.0 0.00 0.00 0.00 1011.0
20260510090403 140 47 6.0 7.0 0.00 0.00 0.00 1011.3
20260510085859 140 52 2.0 5.0 0.00 0.00 0.00 1010.8
20260510085354 140 18 3.0 5.0 0.00 0.00 0.00 1011.0
20260510084849 140 8 0.0 0.0 0.00 0.00 0.00 1011.1
20260510084348 140 14 11.0 15.0 0.00 0.00 0.00 1011.3
20260510083844 140 37 9.0 13.0 0.00 0.00 0.00 1011.0
20260510083340 140 39 5.0 7.0 0.00 0.00 0.00 1010.8
20260510082836 140 0 1.0 2.0 0.00 0.00 0.00 1010.6
20260510082333 140 13 0.0 0.0 0.00 0.00 0.00 1010.3
20260510081832 140 1 0.0 0.0 0.00 0.00 0.00 1010.0
20260510081328 140 32 0.0 0.0 0.00 0.00 0.00 1010.0
20260510080825 140 66 0.0 0.0 0.00 0.00 0.00 1009.6
20260510080319 140 126 0.0 0.0 0.00 0.00 0.00 1009.7
20260510075816 140 121 0.0 0.0 0.00 0.00 0.00 1009.3
20260510075308 140 113 0.0 0.0 0.00 0.00 0.00 1009.3
20260510074805 140 123 1.0 2.0 0.00 0.00 0.00 1009.4
20260510074302 140 96 0.0 0.0 0.00 0.00 0.00 1009.2
20260510073758 140 117 0.0 0.0 0.00 0.00 0.00 1009.5
20260510073254 140 109 0.0 0.0 0.00 0.00 0.00 1009.5
20260510072749 140 86 0.0 0.0 0.00 0.00 0.00 1009.3
20260510072246 140 147 0.0 0.0 0.00 0.00 0.00 1009.5
20260510071743 140 117 0.0 0.0 0.00 0.00 0.00 1009.5
20260510071239 140 74 0.0 0.0 0.00 0.00 0.00 1009.6
20260510070738 140 58 0.0 0.0 0.00 0.00 0.00 1009.7
20260510070235 140 23 0.0 0.0 0.00 0.00 0.00 1009.5
20260510065729 140 96 0.0 0.0 0.00 0.00 0.00 1009.5
20260510065226 140 94 0.0 0.0 0.00 0.00 0.00 1009.5
20260510064723 140 80 0.0 0.0 0.00 0.00 0.00 1009.7
20260510064221 140 83 0.0 0.0 0.00 0.00 0.00 1009.6
20260510063717 140 48 0.0 0.0 0.00 0.00 0.00 1009.5
20260510063213 140 15 0.0 0.0 0.00 0.00 0.00 1009.8
20260510062710 140 24 0.0 0.0 0.00 0.00 0.00 1009.3
20260510062206 140 107 0.0 0.0 0.00 0.00 0.00 1009.0
20260510061701 140 160 0.0 0.0 0.00 0.00 0.00 1009.1
20260510061158 140 158 0.0 0.0 0.00 0.00 0.00 1009.0
20260510060654 140 149 0.0 0.0 0.00 0.00 0.00 1009.1
20260510060151 140 152 0.0 0.0 0.00 0.00 0.00 1009.1
20260510055648 140 143 0.0 0.0 0.00 0.00 0.00 1009.2
20260510055146 140 187 0.0 0.0 0.00 0.00 0.00 1008.8
20260510054641 140 146 0.0 0.0 0.00 0.00 0.00 1008.8
20260510054137 140 158 0.0 0.0 0.00 0.00 0.00 1008.7
20260510053636 140 156 0.0 0.0 0.00 0.00 0.00 1008.7
20260510053133 140 159 0.0 0.0 0.00 0.00 0.00 1008.3
20260510052629 140 189 0.0 0.0 0.00 0.00 0.00 1008.5
20260510052125 140 172 0.0 0.0 0.00 0.00 0.00 1008.4
20260510051620 140 140 0.0 0.0 0.00 0.00 0.00 1008.1
20260510051118 140 178 0.0 0.0 0.00 0.00 0.00 1008.3
20260510050615 140 164 0.0 0.0 0.00 0.00 0.00 1008.2
20260510050112 140 145 0.0 0.0 0.00 0.00 0.00 1008.3
20260510045609 140 163 0.0 0.0 0.00 0.00 0.00 1008.1
20260510045105 140 151 0.0 1.0 0.00 0.00 0.00 1008.1
20260510044602 140 178 0.0 0.0 0.00 0.00 0.00 1008.3
20260510044059 140 189 0.0 0.0 0.00 0.00 0.00 1008.3
20260510043555 140 138 1.0 2.0 0.00 0.00 0.00 1008.3
20260510043051 140 156 0.0 0.0 0.00 0.00 0.00 1008.4
20260510042544 140 182 0.0 0.0 0.00 0.00 0.00 1008.2
20260510042039 140 137 6.0 8.0 0.00 0.00 0.00 1008.1
20260510041537 140 151 0.0 0.0 0.00 0.00 0.00 1008.2
20260510041035 140 121 0.0 0.0 0.00 0.00 0.00 1008.3
20260510040531 140 118 0.0 0.0 0.00 0.00 0.00 1008.3
20260510040027 140 134 0.0 0.0 0.00 0.00 0.00 1008.2
20260510035524 140 131 0.0 0.0 0.00 0.01 0.01 1008.3
20260510035023 140 128 0.0 0.0 0.00 0.01 0.01 1008.5
20260510034522 140 173 0.0 0.0 0.00 0.01 0.01 1008.4
20260510034018 140 120 0.0 0.0 0.00 0.01 0.01 1008.3
20260510033514 140 152 0.0 0.0 0.00 0.01 0.01 1008.3
20260510033012 140 116 0.0 0.0 0.00 0.01 0.01 1008.4
20260510032508 140 128 0.0 0.0 0.00 0.01 0.01 1008.5
20260510032008 140 152 0.0 0.0 0.00 0.01 0.01 1008.6
20260510031504 140 146 0.0 0.0 0.00 0.01 0.01 1008.5
20260510031001 140 151 0.0 0.0 0.00 0.01 0.01 1008.6
20260510030456 140 180 0.0 0.0 0.00 0.01 0.01 1008.4
20260510025953 140 183 0.0 0.0 0.00 0.01 0.01 1008.7
20260510025450 140 113 0.0 0.0 0.00 0.01 0.01 1008.4
20260510024948 140 129 0.0 0.0 0.00 0.01 0.01 1008.4
20260510024444 140 110 0.0 1.0 0.00 0.01 0.01 1008.2
20260510023940 140 120 2.0 5.0 0.00 0.01 0.01 1008.1
20260510023436 140 154 0.0 0.0 0.00 0.01 0.01 1008.2
20260510022934 140 120 4.0 5.0 0.00 0.01 0.01 1007.7
20260510022433 140 132 4.0 5.0 0.00 0.01 0.01 1007.8
20260510021932 140 124 4.0 5.0 0.00 0.01 0.01 1007.9
20260510021430 140 99 4.0 5.0 0.00 0.01 0.01 1008.1
20260510020926 140 95 4.0 5.0 0.00 0.01 0.01 1007.9
20260510020421 140 111 6.0 7.0 0.00 0.01 0.01 1007.9
20260510015917 140 108 4.0 6.0 0.00 0.01 0.01 1007.7
20260510015413 140 104 4.0 6.0 0.00 0.01 0.01 1007.4
20260510014908 140 125 6.0 7.0 0.00 0.01 0.01 1007.4
20260510014406 140 92 0.0 0.0 0.00 0.01 0.01 1007.8
20260510013902 140 99 0.0 0.0 0.00 0.01 0.01 1007.4
20260510013358 140 96 0.0 0.0 0.00 0.01 0.01 1007.6
20260510012852 140 102 0.0 0.0 0.00 0.01 0.01 1007.3
20260510012347 140 98 4.0 5.0 0.00 0.01 0.01 1007.1
20260510011842 140 113 3.0 5.0 0.00 0.01 0.01 1007.0
20260510011338 140 108 4.0 5.0 0.00 0.01 0.01 1007.1
20260510010834 140 95 3.0 3.0 0.00 0.01 0.01 1007.0
20260510010332 140 98 0.0 0.0 0.00 0.01 0.01 1007.0
20260510005828 140 105 4.0 5.0 0.00 0.01 0.01 1007.0
20260510005325 140 114 0.0 0.0 0.00 0.01 0.01 1006.8
20260510004823 140 91 0.0 0.0 0.00 0.01 0.01 1006.8
20260510004320 140 102 4.0 5.0 0.00 0.01 0.01 1007.0
20260510003818 140 125 2.0 3.0 0.00 0.01 0.01 1007.0
20260510003314 140 121 5.0 6.0 0.00 0.01 0.01 1007.0
20260510002813 140 88 0.0 0.0 0.00 0.01 0.01 1006.6
20260510002310 140 110 5.0 6.0 0.00 0.01 0.01 1006.9
20260510001807 140 101 6.0 7.0 0.00 0.01 0.01 1006.8
20260510001305 140 112 3.0 3.0 0.00 0.01 0.01 1006.7
20260510000800 140 102 3.0 3.0 0.00 0.01 0.01 1006.6
20260510000258 140 101 3.0 5.0 0.00 0.01 0.01 1006.8
20260509235755 140 116 6.0 8.0 0.00 0.01 0.01 1006.6
20260509235252 140 113 0.0 0.0 0.00 0.01 0.01 1007.0
20260509234747 140 127 5.0 6.0 0.00 0.01 0.01 1006.8
20260509234244 140 138 1.0 5.0 0.00 0.01 0.01 1006.9
20260509233743 140 106 0.0 0.0 0.00 0.01 0.01 1006.9
20260509233240 140 84 0.0 0.0 0.00 0.01 0.01 1007.0
20260509232736 140 81 0.0 0.0 0.00 0.01 0.01 1007.0
20260509232233 140 130 0.0 0.0 0.00 0.01 0.01 1007.0
20260509231730 140 107 0.0 0.0 0.00 0.01 0.01 1007.0
20260509231227 140 254 0.0 0.0 0.00 0.01 0.01 1007.2
20260509230724 140 148 0.0 0.0 0.00 0.01 0.01 1007.1
20260509230221 140 139 0.0 0.0 0.00 0.01 0.01 1007.1
20260509225716 140 170 0.0 0.0 0.00 0.01 0.01 1007.2
20260509225212 140 165 0.0 0.0 0.00 0.01 0.01 1007.3
20260509224708 140 171 0.0 0.0 0.00 0.01 0.01 1007.2
20260509224205 140 343 0.0 0.0 0.00 0.01 0.01 1007.1
20260509223702 140 38 0.0 0.0 0.00 0.01 0.01 1007.0
20260509223159 140 82 0.0 0.0 0.00 0.01 0.01 1007.2
20260509222656 140 173 0.0 0.0 0.00 0.01 0.01 1007.4
20260509222152 140 47 0.0 0.0 0.00 0.01 0.01 1007.1
20260509221648 140 123 0.0 0.0 0.00 0.01 0.01 1007.2
20260509221143 140 124 3.0 5.0 0.00 0.01 0.01 1007.4
20260509220640 140 123 0.0 0.0 0.00 0.01 0.01 1007.6
20260509220136 140 227 0.0 0.0 0.00 0.01 0.01 1007.6
20260509215632 140 193 0.0 0.0 0.00 0.01 0.01 1007.2
20260509215129 140 225 0.0 0.0 0.00 0.01 0.01 1007.6
20260509214626 140 138 3.0 3.0 0.00 0.01 0.01 1007.8
20260509214123 140 220 0.0 0.0 0.00 0.01 0.01 1007.7
20260509213619 140 183 5.0 7.0 0.00 0.01 0.01 1007.7
20260509213115 140 148 1.0 2.0 0.00 0.01 0.01 1007.6
20260509212613 140 181 3.0 5.0 0.00 0.01 0.01 1007.8
20260509212110 140 50 0.0 2.0 0.00 0.01 0.01 1007.8
20260509211606 140 90 4.0 5.0 0.00 0.01 0.01 1007.8
20260509211103 140 228 0.0 0.0 0.00 0.01 0.01 1007.7
20260509210559 140 72 6.0 8.0 0.00 0.01 0.01 1007.8
20260509210056 140 0 0.0 0.0 0.00 0.01 0.01 1008.0
20260509205550 140 332 0.0 0.0 0.00 0.01 0.01 1008.4
20260509205045 140 84 2.0 3.0 0.00 0.01 0.01 1008.3
20260509204541 140 47 0.0 0.0 0.00 0.01 0.01 1008.4
20260509204038 140 122 0.0 0.0 0.00 0.01 0.01 1008.5
20260509203533 140 346 5.0 6.0 0.00 0.01 0.01 1008.6
20260509203032 140 22 0.0 0.0 0.00 0.01 0.01 1008.6
20260509202527 140 8 0.0 0.0 0.00 0.01 0.01 1008.5
20260509202023 140 328 0.0 0.0 0.00 0.01 0.01 1008.9
20260509201518 140 263 0.0 0.0 0.00 0.01 0.01 1008.6
20260509201016 140 312 0.0 0.0 0.00 0.01 0.01 1008.4
20260509200510 140 288 5.0 7.0 0.00 0.01 0.01 1008.9
20260509200007 140 0 2.0 3.0 0.00 0.01 0.01 1008.8
20260509195502 140 131 0.0 0.0 0.00 0.01 0.01 1009.0
20260509195001 140 267 0.0 0.0 0.00 0.01 0.01 1008.8
20260509194457 140 340 7.0 8.0 0.00 0.01 0.01 1009.1
20260509193955 140 295 0.0 0.0 0.00 0.01 0.01 1009.0
20260509193454 140 217 0.0 0.0 0.00 0.01 0.01 1009.2
20260509192951 140 34 1.0 3.0 0.00 0.01 0.01 1009.1
20260509192448 140 57 3.0 5.0 0.00 0.01 0.01 1009.4
20260509191943 140 58 0.0 0.0 0.00 0.01 0.01 1009.2
20260509191438 140 205 0.0 0.0 0.00 0.01 0.01 1009.5
20260509190934 140 290 0.0 0.0 0.00 0.01 0.01 1009.4
20260509190431 140 268 0.0 0.0 0.00 0.01 0.01 1009.5
20260509185929 140 325 0.0 0.0 0.00 0.01 0.01 1009.5
20260509185426 140 317 0.0 0.0 0.00 0.01 0.01 1009.7
20260509184923 140 286 0.0 0.0 0.00 0.01 0.01 1009.7
20260509184421 140 248 0.0 0.0 0.00 0.01 0.01 1009.8
20260509183917 140 351 6.0 8.0 0.00 0.01 0.01 1009.6
20260509183411 140 305 0.0 0.0 0.00 0.01 0.01 1009.7
20260509182908 140 310 0.0 0.0 0.00 0.01 0.01 1010.0
20260509182405 140 74 0.0 0.0 0.00 0.01 0.01 1010.0
20260509181902 140 12 0.0 0.0 0.00 0.01 0.01 1010.1
20260509181400 140 349 0.0 1.0 0.00 0.01 0.01 1010.1
20260509180857 140 299 0.0 0.0 0.00 0.01 0.01 1010.3
20260509180352 140 342 4.0 6.0 0.00 0.01 0.01 1010.3
20260509175849 140 250 3.0 3.0 0.00 0.01 0.01 1010.2
20260509175345 140 219 0.0 0.0 0.00 0.01 0.01 1010.5
20260509174841 140 331 3.0 5.0 0.00 0.01 0.01 1010.4
20260509174338 140 231 3.0 3.0 0.00 0.01 0.01 1010.3
20260509173834 140 270 5.0 5.0 0.00 0.01 0.01 1010.3
20260509173329 140 250 5.0 7.0 0.00 0.01 0.01 1010.5
20260509172825 140 324 5.0 8.0 0.00 0.01 0.01 1010.5
20260509172322 140 254 0.0 0.0 0.00 0.01 0.01 1010.5
20260509171818 140 286 1.0 3.0 0.00 0.01 0.01 1010.4
20260509171314 140 269 1.0 2.0 0.00 0.01 0.01 1010.5
20260509170811 140 309 0.0 0.0 0.00 0.01 0.01 1010.7
20260509170307 140 327 0.0 0.0 0.00 0.01 0.01 1011.0
20260509165806 140 273 5.0 6.0 0.00 0.01 0.01 1010.7
20260509165301 140 265 0.0 0.0 0.00 0.01 0.01 1010.8
20260509164757 140 257 6.0 7.0 0.00 0.01 0.01 1011.1
20260509164254 140 280 7.0 10.0 0.00 0.01 0.01 1011.1
20260509163750 140 290 0.0 2.0 0.00 0.01 0.01 1011.2
20260509163247 140 301 0.0 1.0 0.00 0.01 0.01 1011.3
20260509162745 140 209 0.0 0.0 0.00 0.01 0.01 1011.2
20260509162239 140 304 2.0 2.0 0.00 0.01 0.01 1011.2
20260509161736 140 295 1.0 3.0 0.00 0.01 0.01 1011.1
20260509161232 140 242 5.0 7.0 0.00 0.01 0.01 1011.0
20260509160727 140 283 1.0 2.0 0.00 0.01 0.01 1011.2
20260509160224 140 299 7.0 8.0 0.00 0.01 0.01 1011.4
20260509155718 140 216 3.0 3.0 0.00 0.01 0.01 1011.4
20260509155216 140 247 4.0 5.0 0.00 0.01 0.01 1011.3
20260509154711 140 303 3.0 5.0 0.00 0.01 0.01 1011.1
20260509154209 140 288 2.0 5.0 0.00 0.01 0.01 1011.1
20260509153706 140 265 5.0 7.0 0.00 0.01 0.01 1011.2